Location: Unspecified
(0.0000°N, 0.0000°E)
Time: 18:37:54
(UTC+00:00)

deb Blok Kosmos - Pass Details

Date: 20 November 2025
Orbit: 1343 x 1638 km, 56.1° (Epoch: 01 December)

Event Time Altitude Azimuth Distance (km) Brightness Sun altitude
Rises 22:14:44 0° 225° (SW) 4,863 ? -60.1°
Reaches altitude 10° 22:18:03 10° 231° (SW) 3,870 ? -60.7°
Enters shadow 22:19:44 16° 235° (SW) 3,389 ? -61.0°
